세미나안내

[2014 03 12] 정기세미나 1st

Fe Based Superconductor Thin Films: From Synthesis to Artificially Engineered Superlattices

MSE Graduate Students and Researchers

관리자 | 2014.03.17 13:07 | 조회 2624


Reception: MSE Graduate Students and Researchers

Reference: MSE Professors

Subject: The 1st Seminar - Spring Semester, 2014 

 

 Date: 2014. 3. 12(Wed), 17:00 ~ 18:15

 Place: Engineering Building, Room.202 Multimedia Room

 Title: Fe Based Superconductor Thin Films: From Synthesis to Artificially Engineered Superlattices

 Speaker: Prof. Sanghan Lee (Gwangju Institute of Science and Technology)

Host of a Seminar: Prof. Junwoo Son

Speaker Language: ENGLISH

 

Abstract:

The synthesis of high quality single crystal thin films and multilayers of pnictide superconductors is critical to explore their intrinsic properties and evaluate novel device applications. In this study, we have grown genuine epitaxial thin films of Co-doped BaFe2As2 (Ba-122) by employing template engineering on single-crystal (001) SrTiO3 (STO) template on (001) (La,Sr)(Al,Ta)O3 substrates with strong c-axis flux pinning[1]. Beyond the single layer Ba-122 thin films, artificial layered pnictide superlattices offer unique opportunity towards tailoring superconducting properties and understanding the mechanisms of superconductivity by creating model structures which do not exist in nature. The synthesis of artificial layered superlattices of pnictide superconductors opens many avenues for superconducting electronic device applications and for model experiment in superconductivity[2].

 

[1] S. Lee et al., Template engineering of Co-doped BaFe2As2 single-crystal thin films, Nat. Mater., 9, 397-402 (2010)

 

[2] S. Lee et al., Artificially engineered superlattices of pnictide superconductors, Nat. Mater., 12, 392-396, (2013)

 

Department of Materials Science and Engineering

 



182개(8/10페이지)
세미나안내
번호 제목 글쓴이 조회 날짜
42 [2014 05 28] 정기세미나 11th 관리자 2483 2014.05.26 18:17
41 [2014 05 21] 정기세미나 10th 관리자 2285 2014.05.19 11:03
40 [2014 05 14] 정기세미나 9th 관리자 2319 2014.05.13 08:52
39 [2014 05 13] 특별세미나 (BK21PLUS) 관리자 3038 2014.05.12 11:44
38 [2014 05 09] 특별세미나 (BK21PLUS) 관리자 3006 2014.05.09 08:55
37 [2014 05 07] 정기세미나 8th 관리자 2225 2014.05.07 10:25
36 [2014 05 03] 특별세미나 (BK21PLUS-고분자연구소) 관리자 2529 2014.04.30 11:34
35 [2014 04 30] 정기세미나 7th 관리자 2516 2014.04.29 11:42
34 [2014 04 24] 특별세미나 (BK21PLUS-IBS) 첨부파일 관리자 2544 2014.04.16 14:19
33 [2014 04 16] 정기세미나 6th 관리자 2377 2014.04.14 13:59
32 [2014 04 15] 특별세미나 (신소재공학과 석학교수) 관리자 2881 2014.04.14 13:07
31 [2014 04 09] 정기세미나 5th 관리자 2535 2014.04.01 08:58
30 [2014 04 17] 특별세미나 (BK21PLUS) 관리자 2652 2014.04.02 11:30
29 [2014 04 02] 정기세미나 4th 관리자 2663 2014.04.01 08:58
28 [2014 03 26] 정기세미나 3rd 관리자 2994 2014.03.25 09:07
27 [2014 03 28] 특별세미나 (BK21PLUS) 관리자 2437 2014.03.24 15:43
26 [2014 03 20] 특별세미나 (BK21PLUS) 관리자 2760 2014.03.17 13:09
25 [2014 03 19] 정기세미나 2nd 관리자 2419 2014.03.17 13:08
>> [2014 03 12] 정기세미나 1st 관리자 2625 2014.03.17 13:07
23 [2014 03 05] 정기특별세미나 관리자 2544 2014.03.03 11:21